sat.trackr.live / text

‹ back to catalog

WILDFIRE 9

NORAD 57765 · 2023-133J

PAYLOAD ACTIVE UNKNOWN

§ Identity

Operator
Country
US
Launch date
2023-09-02
Launch site
AFWTR
Launch vehicle
Mass (kg)
RCS (m²)

External: N2YO · Heavens-Above · Gunter

§ Orbital elements

Epoch: 2026-05-25T02:14:53.076768Z

Period
103.94 min
Inclination
81.0047°
Eccentricity
0.0007004
Mean motion
13.85387084 rev/d
Perigee alt
939.7 km
Apogee alt
950.0 km
Semi-major
7,323.0 km
B*
-1.9132e-5
RAAN
30.1222°
Arg perigee
75.3475°
Mean anomaly
284.8458°
Rev number
13,782

§ Raw data

WILDFIRE 91 57765U 23133J   26145.09366987 -.00000011  00000+0 -19132-4 0  99912 57765  81.0047  30.1222 0007004  75.3475 284.8458 13.85387084137821

JSON: /api/v1/satellites/57765 · /tle

For live sub-satellite position, see the globe view (requires WebGL).

§ Visibility from observer

Set your observer location to see the next 7 days of passes ≥ 10°. The values pass through the URL so the page stays shareable.

No JS? Fill the form by hand. The geolocation button needs JavaScript.

§ Radio — SatNOGS DB

ModeDescriptionDownlinkUplink
FM S-band telemetry 2.278 GHz

1 transmitter · refreshed weekly from db.satnogs.org